Вернуться в каталог

FENGYUN 1C DEB

АктивенSSO
NORAD 31089·DEBRIS·🇨🇳 China

Запущен May 10, 1999 с Taiyuan Satellite Launch Center

Loading…

Ближайшие Пролёты (ближайшие 24 часа)

TLE

СвежийSource: Space-Track

Эпоха: Sep 11, 2026, 21:17 UTC

1 31089U 99025BGK 26254.88692380  .00000579  00000-0  43530-3 0  9998
2 31089  98.9836  31.6243 0205157 189.7507 323.4786 13.88718964718501

Отслеживайте FENGYUN 1C DEB в реальном времени с AllMySat

Download on the App Store